Location: Csohesd
(46.2500°N, 22.6167°E)
Time: 06:05:45
(UTC+00:00)

Cosmos 2237 - Pass Details

Date: 21 October 2021
Orbit: 845 x 856 km, 70.8° (Epoch: 04 December)

Event Time Altitude Azimuth Distance (km) Brightness Sun altitude
Rises 18:01:16 0° 210° (SSW) 3,406 7.6 -26.3°
Reaches altitude 10° 18:03:43 10° 212° (SSW) 2,475 6.8 -26.7°
Maximum altitude 18:09:25 75° 298° (WNW) 887 4.3 -27.7°
Enters shadow 18:11:45 37° 16° (NNE) 1,305 5.1 -28.1°
